Time,TemperatureF,DewpointF,PressureIn,WindDirection,WindDirectionDegrees,WindSpeedMPH,WindSpeedGustMPH,Humidity,HourlyPrecipIn,Conditions,Clouds,dailyrainin,SoftwareType,DateUTC
2013-02-16 00:08:00,34.9,34.4,29.91,WNW,292,0.0,-999.0,98,-99.99,,,0.00,Acu-Link.com,2013-02-16 05:08:00,
2013-02-16 00:23:00,33.4,32.9,29.91,West,270,0.0,-999.0,98,-99.99,,,0.00,Acu-Link.com,2013-02-16 05:23:00,
2013-02-16 00:39:00,37.2,36.7,29.91,SSW,202,0.0,-999.0,98,-99.99,,,0.00,Acu-Link.com,2013-02-16 05:39:00,
2013-02-16 00:54:00,37.0,36.5,29.91,South,180,0.0,-999.0,98,-99.99,,,0.00,Acu-Link.com,2013-02-16 05:54:00,
2013-02-16 01:09:00,35.8,35.3,29.90,NNW,337,0.0,-999.0,98,-99.99,,,0.00,Acu-Link.com,2013-02-16 06:09:00,
2013-02-16 01:24:00,34.9,34.4,29.90,SW,225,0.0,-999.0,98,-99.99,,,0.00,Acu-Link.com,2013-02-16 06:24:00,
2013-02-16 01:40:00,35.2,34.7,29.91,SW,225,0.0,-999.0,98,-99.99,,,0.00,Acu-Link.com,2013-02-16 06:40:00,
2013-02-16 01:55:00,35.2,34.7,29.91,ENE,67,0.0,-999.0,98,-99.99,,,0.00,Acu-Link.com,2013-02-16 06:55:00,
2013-02-16 02:10:00,34.7,34.2,29.90,ENE,67,0.0,-999.0,98,-99.99,,,0.00,Acu-Link.com,2013-02-16 07:10:00,
2013-02-16 02:26:00,34.2,33.7,29.89,NW,315,2.7,-999.0,98,-99.99,,,0.00,Acu-Link.com,2013-02-16 07:26:00,
2013-02-16 02:41:00,35.4,34.9,29.90,SW,225,0.0,-999.0,98,-99.99,,,0.00,Acu-Link.com,2013-02-16 07:41:00,
2013-02-16 02:56:00,35.1,34.6,29.89,NE,45,0.0,-999.0,98,-99.99,,,0.00,Acu-Link.com,2013-02-16 07:56:00,
2013-02-16 03:12:00,35.4,34.9,29.88,WSW,247,1.1,-999.0,98,-99.99,,,0.00,Acu-Link.com,2013-02-16 08:12:00,
2013-02-16 03:27:00,36.7,36.2,29.89,West,270,0.0,-999.0,98,-99.99,,,0.00,Acu-Link.com,2013-02-16 08:27:00,
2013-02-16 03:42:00,35.8,35.3,29.90,NE,45,1.6,-999.0,98,-99.99,,,0.00,Acu-Link.com,2013-02-16 08:42:00,
2013-02-16 03:57:00,35.4,34.9,29.88,North,0,8.9,-999.0,98,-99.99,,,0.00,Acu-Link.com,2013-02-16 08:57:00,
2013-02-16 04:19:00,35.8,35.3,29.89,NNW,337,6.7,-999.0,98,-99.99,,,0.00,Acu-Link.com,2013-02-16 09:19:00,
2013-02-16 04:34:00,35.8,35.3,29.89,NE,45,6.7,-999.0,98,-99.99,,,0.00,Acu-Link.com,2013-02-16 09:34:00,
2013-02-16 04:49:00,35.6,35.1,29.90,NE,45,10.3,-999.0,98,-99.99,,,0.00,Acu-Link.com,2013-02-16 09:49:00,
2013-02-16 05:04:00,35.2,34.7,29.89,NNW,337,4.3,-999.0,98,-99.99,,,0.00,Acu-Link.com,2013-02-16 10:04:00,
2013-02-16 05:19:00,34.7,34.2,29.88,NW,315,6.7,-999.0,98,-99.99,,,0.00,Acu-Link.com,2013-02-16 10:19:00,
2013-02-16 05:34:00,34.5,34.0,29.90,NNW,337,5.8,-999.0,98,-99.99,,,0.00,Acu-Link.com,2013-02-16 10:34:00,
2013-02-16 05:49:00,34.2,33.7,29.90,NE,45,6.7,-999.0,98,-99.99,,,0.00,Acu-Link.com,2013-02-16 10:49:00,
2013-02-16 06:05:00,33.8,33.3,29.89,NNW,337,9.8,-999.0,98,-99.99,,,0.00,Acu-Link.com,2013-02-16 11:05:00,
2013-02-16 06:20:00,33.6,33.1,29.89,NE,45,5.8,-999.0,98,-99.99,,,0.00,Acu-Link.com,2013-02-16 11:20:00,
2013-02-16 06:35:00,33.6,33.1,29.90,NNE,22,6.7,-999.0,98,-99.99,,,0.00,Acu-Link.com,2013-02-16 11:35:00,
2013-02-16 06:51:00,33.6,33.1,29.89,North,0,6.3,-999.0,98,-99.99,,,0.00,Acu-Link.com,2013-02-16 11:51:00,
2013-02-16 07:06:00,33.4,32.9,29.89,NE,45,7.8,-999.0,98,-99.99,,,0.00,Acu-Link.com,2013-02-16 12:06:00,
2013-02-16 07:21:00,33.4,32.9,29.89,WNW,292,2.7,-999.0,98,-99.99,,,0.00,Acu-Link.com,2013-02-16 12:21:00,
2013-02-16 07:36:00,33.4,32.9,29.90,NNW,337,4.7,-999.0,98,-99.99,,,0.00,Acu-Link.com,2013-02-16 12:36:00,
2013-02-16 07:52:00,33.3,32.8,29.90,NNE,22,5.8,-999.0,98,-99.99,,,0.00,Acu-Link.com,2013-02-16 12:52:00,
2013-02-16 08:07:00,32.9,32.4,29.91,NW,315,3.8,-999.0,98,-99.99,,,0.00,Acu-Link.com,2013-02-16 13:07:00,
2013-02-16 08:22:00,32.7,32.2,29.92,NNW,337,2.7,-999.0,98,-99.99,,,0.00,Acu-Link.com,2013-02-16 13:22:00,
2013-02-16 08:38:00,32.9,32.4,29.91,WNW,292,2.2,-999.0,98,-99.99,,,0.00,Acu-Link.com,2013-02-16 13:38:00,
2013-02-16 08:53:00,32.7,32.2,29.91,NNW,337,2.2,-999.0,98,-99.99,,,0.00,Acu-Link.com,2013-02-16 13:53:00,
2013-02-16 09:08:00,32.9,32.4,29.90,NNE,22,3.1,-999.0,98,-99.99,,,0.00,Acu-Link.com,2013-02-16 14:08:00,
2013-02-16 09:24:00,33.3,32.8,29.91,NNE,22,5.8,-999.0,98,-99.99,,,0.00,Acu-Link.com,2013-02-16 14:24:00,
2013-02-16 09:39:00,33.8,33.3,30.00,NE,45,3.8,-999.0,98,-99.99,,,0.00,Acu-Link.com,2013-02-16 14:39:00,
2013-02-16 09:54:00,34.0,33.5,29.88,North,0,7.4,-999.0,98,-99.99,,,0.01,Acu-Link.com,2013-02-16 14:54:00,
2013-02-16 10:09:00,34.2,33.7,29.89,NE,45,8.9,-999.0,98,-99.99,,,0.01,Acu-Link.com,2013-02-16 15:09:00,
2013-02-16 10:25:00,34.9,34.4,29.89,NNW,337,5.8,-999.0,98,-99.99,,,0.01,Acu-Link.com,2013-02-16 15:25:00,
2013-02-16 10:40:00,35.2,34.7,29.89,NE,45,6.7,-999.0,98,-99.99,,,0.01,Acu-Link.com,2013-02-16 15:40:00,
2013-02-16 10:55:00,35.6,35.1,29.88,NNW,337,5.1,-999.0,98,-99.99,,,0.01,Acu-Link.com,2013-02-16 15:55:00,
2013-02-16 11:11:00,35.6,35.1,29.88,NNE,22,5.1,-999.0,98,-99.99,,,0.01,Acu-Link.com,2013-02-16 16:11:00,
2013-02-16 11:26:00,35.6,35.1,29.88,NNE,22,4.3,-999.0,98,-99.99,,,0.01,Acu-Link.com,2013-02-16 16:26:00,
2013-02-16 11:41:00,36.5,36.0,29.88,WNW,292,4.3,-999.0,98,-99.99,,,0.01,Acu-Link.com,2013-02-16 16:41:00,
2013-02-16 11:56:00,36.1,35.6,29.87,NW,315,3.1,-999.0,98,-99.99,,,0.01,Acu-Link.com,2013-02-16 16:56:00,
2013-02-16 12:12:00,36.5,36.0,29.86,North,0,6.3,-999.0,98,-99.99,,,0.01,Acu-Link.com,2013-02-16 17:12:00,
2013-02-16 12:27:00,36.7,36.2,29.86,NNE,22,4.7,-999.0,98,-99.99,,,0.01,Acu-Link.com,2013-02-16 17:27:00,
2013-02-16 12:42:00,37.8,37.2,29.85,NNE,22,5.8,-999.0,98,-99.99,,,0.01,Acu-Link.com,2013-02-16 17:42:00,
2013-02-16 12:57:00,37.6,37.1,29.84,NNW,337,6.3,-999.0,98,-99.99,,,0.01,Acu-Link.com,2013-02-16 17:57:00,
2013-02-16 13:12:00,37.9,37.4,29.84,NNE,22,8.3,-999.0,98,-99.99,,,0.01,Acu-Link.com,2013-02-16 18:12:00,
2013-02-16 13:28:00,37.9,37.4,29.83,NE,45,6.7,-999.0,98,-99.99,,,0.02,Acu-Link.com,2013-02-16 18:28:00,
2013-02-16 13:43:00,38.5,38.0,29.83,NNW,337,6.7,-999.0,98,-99.99,,,0.02,Acu-Link.com,2013-02-16 18:43:00,
2013-02-16 13:58:00,38.3,37.8,29.83,NNE,22,4.7,-999.0,98,-99.99,,,0.02,Acu-Link.com,2013-02-16 18:58:00,
2013-02-16 14:14:00,38.7,38.1,29.82,NE,45,7.8,-999.0,98,-99.99,,,0.02,Acu-Link.com,2013-02-16 19:14:00,
2013-02-16 14:29:00,39.0,38.5,29.82,NW,315,4.7,-999.0,98,-99.99,,,0.02,Acu-Link.com,2013-02-16 19:29:00,
2013-02-16 14:44:00,38.7,38.1,29.81,NNW,337,4.7,-999.0,98,-99.99,,,0.02,Acu-Link.com,2013-02-16 19:44:00,
2013-02-16 14:59:00,39.4,38.9,29.81,NW,315,5.8,-999.0,98,-99.99,,,0.02,Acu-Link.com,2013-02-16 19:59:00,
2013-02-16 15:15:00,39.7,39.2,29.80,NNE,22,5.8,-999.0,98,-99.99,,,0.02,Acu-Link.com,2013-02-16 20:15:00,
2013-02-16 15:30:00,39.4,38.9,29.80,NNW,337,4.3,-999.0,98,-99.99,,,0.02,Acu-Link.com,2013-02-16 20:30:00,
2013-02-16 15:45:00,39.4,38.9,29.80,NNE,22,4.3,-999.0,98,-99.99,,,0.02,Acu-Link.com,2013-02-16 20:45:00,
2013-02-16 16:01:00,39.2,38.7,29.79,North,0,7.4,-999.0,98,-99.99,,,0.02,Acu-Link.com,2013-02-16 21:01:00,
2013-02-16 16:16:00,39.2,38.7,29.79,NE,45,4.3,-999.0,98,-99.99,,,0.02,Acu-Link.com,2013-02-16 21:16:00,
2013-02-16 16:31:00,39.0,38.5,29.79,North,0,3.8,-999.0,98,-99.99,,,0.02,Acu-Link.com,2013-02-16 21:31:00,
2013-02-16 16:46:00,39.0,38.5,29.79,North,0,6.7,-999.0,98,-99.99,,,0.02,Acu-Link.com,2013-02-16 21:46:00,
2013-02-16 17:01:00,38.8,38.3,29.78,NE,45,5.1,-999.0,98,-99.99,,,0.02,Acu-Link.com,2013-02-16 22:01:00,
2013-02-16 17:17:00,38.5,36.6,29.78,NE,45,4.7,-999.0,93,-99.99,,,0.02,Acu-Link.com,2013-02-16 22:17:00,
2013-02-16 17:32:00,38.5,36.4,29.78,ENE,67,4.7,-999.0,92,-99.99,,,0.02,Acu-Link.com,2013-02-16 22:32:00,
2013-02-16 17:47:00,38.5,36.1,29.78,NNE,22,5.1,-999.0,91,-99.99,,,0.02,Acu-Link.com,2013-02-16 22:47:00,
2013-02-16 18:03:00,38.5,38.0,29.78,NNE,22,4.3,-999.0,98,-99.99,,,0.02,Acu-Link.com,2013-02-16 23:03:00,
2013-02-16 18:18:00,38.1,37.3,29.78,NE,45,7.4,-999.0,97,-99.99,,,0.02,Acu-Link.com,2013-02-16 23:18:00,
2013-02-16 18:33:00,38.1,35.5,29.78,NNE,22,5.1,-999.0,90,-99.99,,,0.02,Acu-Link.com,2013-02-16 23:33:00,
2013-02-16 18:49:00,37.4,33.9,29.79,North,0,8.3,-999.0,87,-99.99,,,0.02,Acu-Link.com,2013-02-16 23:49:00,
2013-02-16 19:04:00,36.9,33.6,29.78,ENE,67,8.9,-999.0,88,-99.99,,,0.02,Acu-Link.com,2013-02-17 00:04:00,
2013-02-16 19:19:00,36.7,32.3,29.78,North,0,9.4,-999.0,84,-99.99,,,0.02,Acu-Link.com,2013-02-17 00:19:00,
2013-02-16 19:34:00,36.0,33.9,29.78,NE,45,8.3,-999.0,92,-99.99,,,0.02,Acu-Link.com,2013-02-17 00:34:00,
2013-02-16 19:50:00,36.1,29.6,29.77,NNE,22,5.8,-999.0,77,-99.99,,,0.02,Acu-Link.com,2013-02-17 00:50:00,
2013-02-16 20:05:00,35.8,28.3,29.76,NNE,22,5.8,-999.0,74,-99.99,,,0.02,Acu-Link.com,2013-02-17 01:05:00,
2013-02-16 20:20:00,35.4,27.0,29.76,NE,45,8.9,-999.0,71,-99.99,,,0.02,Acu-Link.com,2013-02-17 01:20:00,
2013-02-16 20:36:00,35.1,25.6,29.76,NE,45,6.7,-999.0,68,-99.99,,,0.02,Acu-Link.com,2013-02-17 01:36:00,
2013-02-16 20:51:00,34.7,25.2,29.75,NE,45,11.0,-999.0,68,-99.99,,,0.02,Acu-Link.com,2013-02-17 01:51:00,
2013-02-16 21:06:00,34.5,24.4,29.75,NNE,22,4.7,-999.0,66,-99.99,,,0.02,Acu-Link.com,2013-02-17 02:06:00,
2013-02-16 21:22:00,34.2,25.1,29.75,NNE,22,8.9,-999.0,69,-99.99,,,0.02,Acu-Link.com,2013-02-17 02:22:00,
2013-02-16 21:37:00,33.8,24.0,29.74,NNW,337,9.4,-999.0,67,-99.99,,,0.02,Acu-Link.com,2013-02-17 02:37:00,
2013-02-16 21:52:00,33.6,23.5,29.74,NE,45,12.5,-999.0,66,-99.99,,,0.02,Acu-Link.com,2013-02-17 02:52:00,
2013-02-16 22:07:00,33.3,22.8,29.74,NNE,22,7.4,-999.0,65,-99.99,,,0.02,Acu-Link.com,2013-02-17 03:07:00,
2013-02-16 22:23:00,32.9,23.2,29.73,NNE,22,5.1,-999.0,67,-99.99,,,0.02,Acu-Link.com,2013-02-17 03:23:00,
2013-02-16 22:38:00,32.7,23.0,29.71,NE,45,9.4,-999.0,67,-99.99,,,0.02,Acu-Link.com,2013-02-17 03:38:00,
2013-02-16 22:53:00,32.4,23.0,29.71,NNE,22,7.4,-999.0,68,-99.99,,,0.02,Acu-Link.com,2013-02-17 03:53:00,
2013-02-16 23:09:00,32.0,24.0,29.69,NE,45,4.3,-999.0,72,-99.99,,,0.02,Acu-Link.com,2013-02-17 04:09:00,
2013-02-16 23:24:00,31.6,24.3,29.69,NNW,337,8.9,-999.0,74,-99.99,,,0.02,Acu-Link.com,2013-02-17 04:24:00,
2013-02-16 23:39:00,31.3,26.1,29.68,ENE,67,7.4,-999.0,81,-99.99,,,0.02,Acu-Link.com,2013-02-17 04:39:00,
2013-02-16 23:55:00,30.9,28.1,29.68,NE,45,9.4,-999.0,89,-99.99,,,0.02,Acu-Link.com,2013-02-17 04:55:00,